Location: Newark
(45.9456°N, 15.4064°E)
Time: 01:04:20
(UTC+00:00)

Vanguard 3 - Pass Details

Date: 31 January 2020
Orbit: 508 x 3263 km, 33.3° (Epoch: 21 February)

Event Time Altitude Azimuth Distance (km) Brightness Sun altitude
Rises 15:00:30 0° 236° (SW) 6,322 14.3 8.3°
Reaches altitude 10° 15:04:28 10° 231° (SW) 5,585 14.6 7.7°
Maximum altitude 15:21:34 50° 163° (SSE) 3,841 10.8 5.3°
Drops below altitude 10° 15:39:18 10° 97° (E) 5,786 11.0 2.6°
Sets 15:43:30 0° 92° (E) 6,556 11.2 2.0°
